Weather in Kromy

Russia / Ivanovo Oblast     56°52′53″N   42°30′52″E
temp.,
°C
wind,
m/s
gust,
m/s
humid.,
%
clouds,
%
prec.,
mm/h
press.,
hPa
HPBL,
m
7 march, sun
sun700:00−16sw23970 0.0 101226
03:00−16ssw34976 0.0 101071
06:00−14s4109655 0.0 1006205
09:00−9s7138978 0.1 1002623
12:00−6s71292100 1.2 9981043
15:00−5ssw61193100 2.3 994911
18:00−5s51095100 1.4 992607
21:00−6nw3979100 2.4 991322
8 march, mon
mon800:00−10nnw2488100 0.0 99088
03:00−12wnw3681100 0.0 991100
06:00−13w3584100 0.0 99386
09:00−10w3692100 0.0 995249
12:00−6w238451 0.0 996567
15:00−5wnw238175 0.1 998742
18:00−9nw3691100 0.2 1000126
21:00−10n389499 0.3 1003387
9 march, tue
tue900:00−13nnw379587 0.1 1006252
03:00−17nnw369777 0.1 1008116
06:00−20nnw369855 0.0 1010112
09:00−19nnw359466 0.0 1012253
12:00−14nnw348772 0.0 1013497
15:00−13nnw358686 0.1 1015694
18:00−16nnw3793100 0.1 1016310
21:00−20nnw3897100 0.1 1019219
10 march, wed
wed1000:00−24nnw369881 0.0 1020119
03:00−27nnw359847 0.0 102193
06:00−29nnw35980 0.0 102385
09:00−25n35940 0.0 1025241
12:00−19nnw34830 0.0 1025469
15:00−16nw35790 0.0 1024643
18:00−19wnw37920 0.0 1024132
21:00−20wnw399431 0.0 1025238
11 march, thu
thu1100:00−21wnw379389 0.0 1025158
03:00−22wnw379650 0.0 1025141
06:00−22w37970 0.0 1026144
09:00−18wnw47910 0.0 1026243
12:00−12w36850 0.0 1026362
15:00−9w46810 0.0 1025504
18:00−13sw23880 0.0 102521
21:00−16ssw34900 0.0 102571